Columbia Airport, CA

6:45 PM PST on November 22, 2019 (GMT -0800)
Columbia Airport

Weather History for KO22 - September, 2019

Change the Weather History Date:

Wednesday, September 18, 2019

  Actual Average (KMOD) Record (KMOD)
Temperature  
Mean Temperature 60 °F -  
Max Temperature 73 °F 85 °F 102 °F (1984)
Min Temperature 48 °F 57 °F 44 °F (1947)
Degree Days  
Heating Degree Days 4    
Growing Degree Days 10 (Base 50)    
Moisture  
Dew Point 50 °F    
Average Humidity 73    
Maximum Humidity 94    
Minimum Humidity 40    
Precipitation  
Precipitation 0.00 in - - ()
Sea Level Pressure  
Sea Level Pressure 29.98 in    
Wind  
Wind Speed 2 mph (SW)    
Max Wind Speed 9 mph    
Max Gust Speed 14 mph    
Visibility 10 miles    
Events      
Averages and records for this station are not official NWS values.
T = Trace of Precipitation, MM = Missing Value Source: NWS Daily Summary

Daily Weather History Graph

Daily Weather History Graph

Search for Another Location

Airport or City:

Astronomy

Sep. 18, 2019 Rise Set
Actual Time 6:45 AM PDT 7:05 PM PDT
Civil Twilight 6:19 AM PDT 7:31 PM PDT
Nautical Twilight 5:48 AM PDT 8:02 PM PDT
Astronomical Twilight 5:17 AM PDT 8:33 PM PDT
Moon 9:46 PM PDT (9/18) 10:50 AM PDT (9/18)
Length of Visible Light 13h 11m
Length of Day
12h 19m
Waning Gibbous, 82% of the Moon is Illuminated
Sep 18
Waning Gibbous
Sep 21
Last Quarter
Sep 28
New
Oct 5
First Quarter
Oct 13
Full

Hourly Weather History & Observations

Time (PDT) Temp. Dew Point Humidity Pressure Visibility Wind Dir Wind Speed Gust Speed Precip Events Conditions
12:15 AM 51.8 °F 46.4 °F 82% 30.00 in 10.0 mi Calm Calm - N/A   Clear
12:35 AM 51.8 °F 46.4 °F 82% 30.00 in 10.0 mi Calm Calm - N/A   Clear
12:55 AM 51.8 °F 46.4 °F 82% 30.00 in 10.0 mi Calm Calm - N/A   Clear
1:15 AM 51.8 °F 46.4 °F 82% 30.00 in 10.0 mi Calm Calm - N/A   Clear
1:35 AM 50.0 °F 46.4 °F 87% 30.00 in 10.0 mi Calm Calm - N/A   Clear
1:55 AM 50.0 °F 46.4 °F 87% 30.00 in 10.0 mi Calm Calm - N/A   Clear
2:15 AM 50.0 °F 46.4 °F 87% 30.00 in 10.0 mi Calm Calm - N/A   Clear
2:35 AM 50.0 °F 46.4 °F 87% 29.99 in 10.0 mi Calm Calm - N/A   Clear
2:55 AM 48.2 °F 46.4 °F 93% 29.99 in 10.0 mi Calm Calm - N/A   Clear
3:15 AM 50.0 °F 46.4 °F 87% 29.98 in 10.0 mi Calm Calm - N/A   Clear
3:35 AM 48.2 °F 46.4 °F 93% 29.98 in 10.0 mi North - - N/A   Clear
3:55 AM 48.2 °F 46.4 °F 93% 29.98 in 10.0 mi North - - N/A   Clear
4:15 AM 48.2 °F 46.4 °F 93% 29.98 in 10.0 mi Calm Calm - N/A   Clear
4:35 AM 48.2 °F 46.4 °F 93% 29.97 in 10.0 mi North - - N/A   Clear
4:55 AM 48.2 °F 46.4 °F 93% 29.97 in 10.0 mi Calm Calm - N/A   Clear
5:15 AM 48.2 °F 46.4 °F 93% 29.97 in 10.0 mi Calm Calm - N/A   Clear
5:35 AM 48.2 °F 46.4 °F 93% 29.98 in 10.0 mi Calm Calm - N/A   Clear
5:55 AM 48.2 °F 46.4 °F 93% 29.98 in 10.0 mi Calm Calm - N/A   Clear
6:15 AM 48.2 °F 46.4 °F 93% 29.97 in 10.0 mi Calm Calm - N/A   Clear
6:35 AM 48.2 °F 46.4 °F 93% 29.97 in 10.0 mi North - - N/A   Clear
6:55 AM 48.2 °F 46.4 °F 93% 29.98 in 10.0 mi Calm Calm - N/A   Clear
7:15 AM 50.0 °F 46.4 °F 87% 29.99 in 10.0 mi Variable 3.5 mph - N/A   Clear
7:35 AM 50.0 °F 48.2 °F 94% 30.00 in 10.0 mi Calm Calm - N/A   Mostly Cloudy
7:55 AM 53.6 °F 50.0 °F 88% 30.00 in 10.0 mi Calm Calm - N/A   Scattered Clouds
8:15 AM 55.4 °F 50.0 °F 82% 30.00 in 10.0 mi Calm Calm - N/A   Partly Cloudy
8:35 AM 59.0 °F 51.8 °F 77% 30.00 in 10.0 mi Calm Calm - N/A   Partly Cloudy
8:55 AM 62.6 °F 48.2 °F 59% 30.00 in 10.0 mi Calm Calm - N/A   Mostly Cloudy
9:15 AM 64.4 °F 46.4 °F 52% 30.00 in 10.0 mi SSW 3.5 mph - N/A   Overcast
9:35 AM 64.4 °F 46.4 °F 52% 30.00 in 10.0 mi Calm Calm - N/A   Overcast
9:55 AM 66.2 °F 48.2 °F 52% 30.01 in 10.0 mi Calm Calm - N/A   Overcast
10:15 AM 66.2 °F 48.2 °F 52% 30.01 in 10.0 mi SSW 3.5 mph - N/A   Overcast
10:35 AM 66.2 °F 48.2 °F 52% 30.01 in 10.0 mi Variable 4.6 mph - N/A   Overcast
10:55 AM 68.0 °F 46.4 °F 46% 30.01 in 10.0 mi Variable 4.6 mph - N/A   Overcast
11:15 AM 68.0 °F 46.4 °F 46% 30.01 in 10.0 mi Variable 4.6 mph - N/A   Mostly Cloudy
11:35 AM 69.8 °F 44.6 °F 40% 30.01 in 10.0 mi Variable 6.9 mph - N/A   Mostly Cloudy
11:55 AM 69.8 °F 46.4 °F 43% 30.01 in 10.0 mi WSW 6.9 mph - N/A   Overcast
12:15 PM 69.8 °F 44.6 °F 40% 30.00 in 10.0 mi SW 6.9 mph - N/A   Overcast
12:35 PM 68.0 °F 48.2 °F 49% 30.00 in 10.0 mi Variable 4.6 mph - N/A   Overcast
12:55 PM 69.8 °F 48.2 °F 46% 30.00 in 10.0 mi Variable 5.8 mph - N/A   Overcast
1:15 PM 69.8 °F 48.2 °F 46% 29.99 in 10.0 mi Variable 6.9 mph - N/A   Overcast
1:35 PM 73.4 °F 50.0 °F 44% 29.98 in 10.0 mi WSW 9.2 mph - N/A   Scattered Clouds
1:55 PM 73.4 °F 50.0 °F 44% 29.98 in 10.0 mi Variable 6.9 mph - N/A   Mostly Cloudy
2:15 PM 71.6 °F 48.2 °F 43% 29.98 in 10.0 mi Variable 6.9 mph 13.8 mph N/A   Overcast
2:35 PM 71.6 °F 48.2 °F 43% 29.98 in 10.0 mi Variable 5.8 mph - N/A   Overcast
2:55 PM 71.6 °F 55.4 °F 57% 29.98 in 10.0 mi Variable 8.1 mph - N/A   Overcast
3:15 PM 71.6 °F 55.4 °F 57% 29.97 in 10.0 mi Variable 5.8 mph 11.5 mph N/A   Overcast
3:35 PM 69.8 °F 53.6 °F 56% 29.98 in 10.0 mi Variable 6.9 mph - N/A   Overcast
3:55 PM 71.6 °F 53.6 °F 53% 29.97 in 10.0 mi Variable 5.8 mph 13.8 mph N/A   Overcast
4:15 PM 68.0 °F 51.8 °F 56% 29.97 in 10.0 mi Variable 8.1 mph - N/A   Mostly Cloudy
4:35 PM 66.2 °F 53.6 °F 64% 29.98 in 10.0 mi Variable 9.2 mph - N/A   Mostly Cloudy
4:55 PM 64.4 °F 53.6 °F 68% 29.98 in 10.0 mi Variable 6.9 mph - N/A   Mostly Cloudy
5:15 PM 62.6 °F 55.4 °F 77% 29.98 in 9.0 mi Variable 3.5 mph - N/A   Overcast
5:35 PM 64.4 °F 55.4 °F 73% 29.97 in 10.0 mi Variable 4.6 mph - N/A   Overcast
5:55 PM 66.2 °F 55.4 °F 68% 29.96 in 10.0 mi Calm Calm - N/A   Overcast
6:15 PM 64.4 °F 55.4 °F 73% 29.96 in 10.0 mi Calm Calm - N/A   Overcast
6:35 PM 64.4 °F 53.6 °F 68% 29.96 in 10.0 mi Variable 3.5 mph - N/A   Overcast
6:55 PM 64.4 °F 53.6 °F 68% 29.95 in 10.0 mi Calm Calm - N/A   Overcast
7:15 PM 62.6 °F 53.6 °F 72% 29.95 in 10.0 mi Calm Calm - N/A   Mostly Cloudy
7:35 PM 60.8 °F 53.6 °F 77% 29.95 in 10.0 mi Calm Calm - N/A   Mostly Cloudy
7:55 PM 59.0 °F 53.6 °F 82% 29.95 in 10.0 mi Calm Calm - N/A   Mostly Cloudy
8:15 PM 59.0 °F 53.6 °F 82% 29.95 in 10.0 mi Calm Calm - N/A   Partly Cloudy
8:35 PM 57.2 °F 53.6 °F 88% 29.95 in 10.0 mi Calm Calm - N/A   Clear
8:55 PM 57.2 °F 53.6 °F 88% 29.95 in 10.0 mi Calm Calm - N/A   Clear
9:15 PM 57.2 °F 53.6 °F 88% 29.95 in 10.0 mi Calm Calm - N/A   Clear
9:55 PM 55.4 °F 53.6 °F 94% 29.95 in 10.0 mi Calm Calm - N/A   Partly Cloudy
10:15 PM 55.4 °F 53.6 °F 94% 29.96 in 10.0 mi Calm Calm - N/A   Mostly Cloudy
10:35 PM 57.2 °F 53.6 °F 88% 29.96 in 10.0 mi Calm Calm - N/A   Overcast
10:55 PM 57.2 °F 53.6 °F 88% 29.95 in 10.0 mi Calm Calm - N/A   Overcast
11:15 PM 57.2 °F 53.6 °F 88% 29.95 in 10.0 mi Variable 4.6 mph - N/A   Mostly Cloudy
11:35 PM 57.2 °F 53.6 °F 88% 29.95 in 10.0 mi Calm Calm - N/A   Mostly Cloudy
11:55 PM 57.2 °F 53.6 °F 88% 29.94 in 10.0 mi Calm Calm - N/A   Mostly Cloudy